GW5135 Weather Reports


time (UTC)temp
F
wind
direction
speed
knots
gust
knots
rain 1hr
in
rain 24hr
in
rain mn
in
humidity
%
barometer
mb
20260507094501 48 325 0.0 0.0 0.00 0.01 0.01 99 1015.8
20260507093959 49 327 0.0 0.0 0.00 0.01 0.01 99 1015.4
20260507093456 49 331 0.0 0.0 0.00 0.01 0.01 99 1015.5
20260507092954 49 331 0.0 0.0 0.00 0.01 0.01 99 1015.7
20260507092450 49 332 0.9 0.9 0.00 0.01 0.01 99 1015.6
20260507091947 49 320 0.9 0.9 0.00 0.01 0.01 99 1015.7
20260507091444 49 312 0.0 0.0 0.00 0.01 0.01 99 1015.5
20260507090940 49 312 0.0 0.0 0.00 0.01 0.01 99 1015.3
20260507090436 49 312 0.0 0.0 0.00 0.01 0.01 99 1015.4
20260507085932 49 312 0.0 0.0 0.00 0.01 0.01 99 1015.4
20260507085430 50 312 0.0 0.0 0.00 0.01 0.01 99 1015.1
20260507084927 50 312 0.0 0.0 0.00 0.01 0.01 99 1015.1
20260507084424 50 312 0.0 0.0 0.00 0.01 0.01 99 1015.2
20260507083921 50 312 0.0 0.0 0.00 0.01 0.01 99 1015.5
20260507083417 50 312 0.0 0.0 0.00 0.01 0.01 99 1015.7
20260507082913 50 312 0.0 0.0 0.00 0.01 0.01 99 1015.6
20260507082409 50 312 0.0 0.0 0.00 0.01 0.01 99 1015.5
20260507081906 50 312 0.0 0.0 0.00 0.01 0.01 99 1015.5
20260507081402 50 312 0.0 0.0 0.00 0.01 0.01 99 1015.7
20260507080859 50 312 0.0 0.0 0.00 0.01 0.01 99 1015.5
20260507080355 50 312 0.0 0.0 0.00 0.01 0.01 99 1015.6
20260507075851 50 312 0.0 0.0 0.00 0.01 0.01 99 1015.3
20260507075347 50 312 0.0 0.0 0.00 0.01 0.01 99 1015.7
20260507074844 50 312 0.0 0.0 0.00 0.01 0.01 99 1015.3
20260507074341 50 312 0.0 0.0 0.00 0.01 0.01 99 1015.5
20260507073838 50 312 0.0 0.0 0.00 0.01 0.01 99 1015.6
20260507073335 50 312 0.0 0.0 0.00 0.01 0.01 99 1015.5
20260507072832 50 312 0.0 0.0 0.00 0.01 0.01 99 1015.5
20260507072329 50 312 0.0 0.0 0.00 0.01 0.01 99 1015.6
20260507071827 50 312 0.0 0.0 0.00 0.01 0.01 99 1015.5
20260507071324 50 312 0.0 0.0 0.00 0.01 0.01 99 1015.5
20260507070820 50 312 0.0 0.0 0.00 0.01 0.01 99 1015.4
20260507070318 50 312 0.0 0.0 0.00 0.01 0.01 99 1015.3
20260507065814 50 312 0.0 0.0 0.00 0.01 0.01 99 1015.5
20260507065310 50 312 0.0 0.0 0.00 0.01 0.01 99 1015.5
20260507064808 50 312 0.0 0.0 0.00 0.01 0.01 99 1015.3
20260507064307 50 312 0.0 0.0 0.00 0.01 0.01 99 1015.4
20260507063804 50 312 0.0 0.0 0.00 0.01 0.01 99 1015.5
20260507063301 50 312 0.0 0.0 0.00 0.01 0.01 99 1015.8
20260507062757 50 312 0.0 0.0 0.00 0.01 0.01 99 1015.4
20260507062254 50 312 0.0 0.0 0.00 0.01 0.01 99 1015.7
20260507061752 50 312 0.0 0.0 0.00 0.01 0.01 99 1015.6
20260507061250 50 312 0.0 0.0 0.00 0.01 0.01 99 1015.5
20260507060748 50 312 0.0 0.0 0.00 0.01 0.01 99 1015.6
20260507060244 50 312 0.0 0.0 0.00 0.01 0.01 99 1015.7
20260507055741 50 312 0.0 0.0 0.00 0.01 0.01 99 1015.6
20260507055236 50 312 0.0 0.0 0.00 0.01 0.01 98 1015.7
20260507054733 50 312 0.0 0.0 0.00 0.01 0.01 98 1015.8
20260507054230 50 312 0.0 0.0 0.00 0.01 0.01 98 1016.2
20260507053727 51 312 0.0 0.0 0.00 0.01 0.01 97 1015.8
20260507053225 51 312 0.0 0.9 0.00 0.01 0.01 97 1016.0
20260507052724 51 281 0.0 0.9 0.00 0.01 0.01 97 1016.0
20260507052219 51 281 0.0 0.9 0.00 0.01 0.01 97 1016.2
20260507051718 51 253 0.0 0.9 0.00 0.01 0.01 97 1016.2
20260507051214 51 255 0.0 1.7 0.00 0.01 0.01 97 1016.1
20260507050711 51 275 0.9 1.7 0.00 0.01 0.01 97 1016.1
20260507050208 51 248 1.7 2.6 0.00 0.01 0.01 97 1016.2
20260507045704 51 283 0.9 1.7 0.07 0.01 0.01 98 1016.2
20260507045200 52 285 4.3 7.0 0.07 0.01 0.01 99 1015.8
20260507044658 53 283 0.9 1.7 0.00 0.00 0.00 99 1016.0
20260507044154 53 47 0.0 0.0 0.00 0.00 0.00 99 1015.7
20260507043651 53 58 0.0 0.0 0.00 0.00 0.00 99 1015.7
20260507043148 53 58 0.0 0.0 0.00 0.00 0.00 99 1015.5
20260507042644 53 73 0.0 0.0 0.00 0.00 0.00 99 1015.5
20260507042139 53 73 0.0 0.0 0.00 0.00 0.00 99 1015.6
20260507041636 53 74 0.0 0.0 0.00 0.00 0.00 99 1015.6
20260507041133 53 51 0.0 0.0 0.00 0.00 0.00 99 1015.6
20260507040630 53 51 0.0 0.0 0.00 0.00 0.00 99 1015.6
20260507040126 53 51 0.0 0.0 0.00 0.60 0.60 99 1015.3
20260507035622 53 51 0.0 0.0 0.00 0.60 0.60 99 1015.2
20260507035118 53 50 0.0 0.0 0.00 0.60 0.60 99 1015.3
20260507034615 53 48 0.0 0.0 0.00 0.60 0.60 99 1015.2
20260507034113 53 30 0.0 0.9 0.00 0.60 0.60 99 1015.2
20260507033611 53 81 0.0 0.0 0.00 0.60 0.60 99 1015.5
20260507033108 53 81 0.0 0.0 0.00 0.60 0.60 99 1015.4
20260507032605 53 81 0.0 0.0 0.00 0.60 0.60 99 1015.4
20260507032101 53 85 0.0 0.0 0.00 0.60 0.60 99 1015.6
20260507031558 54 86 0.0 0.0 0.00 0.60 0.60 99 1015.3
20260507031055 54 92 0.0 0.0 0.00 0.60 0.60 99 1015.4
20260507030551 54 89 0.0 0.0 0.00 0.60 0.60 99 1015.3
20260507030049 54 112 0.0 0.0 0.00 0.60 0.60 99 1015.4
20260507025546 54 99 0.0 0.9 0.05 0.60 0.60 99 1015.5
20260507025043 54 343 0.0 0.0 0.05 0.60 0.60 99 1015.7
20260507024541 54 72 0.0 0.0 0.00 0.59 0.59 99 1015.5
20260507024038 54 311 0.0 0.0 0.00 0.59 0.59 99 1016.2
20260507023533 54 330 0.0 0.9 0.00 0.59 0.59 99 1016.3
20260507023031 54 333 0.0 0.9 0.00 0.59 0.59 99 1015.8
20260507022528 54 330 0.9 1.7 0.00 0.59 0.59 99 1015.7
20260507022029 54 79 0.0 0.0 0.00 0.59 0.59 99 1015.3
20260507021525 54 98 0.0 0.0 0.00 0.59 0.59 99 1015.2
20260507021022 54 85 0.0 0.0 0.00 0.59 0.59 99 1015.3
20260507020519 54 315 0.0 0.0 0.00 0.59 0.59 99 1015.5
20260507020015 54 315 0.0 0.9 0.00 0.59 0.59 99 1015.3
20260507015514 54 77 0.0 0.9 0.00 0.59 0.59 99 1014.8
20260507015011 54 85 0.0 0.0 0.00 0.59 0.59 98 1015.2
20260507014507 54 2 0.0 0.0 0.00 0.59 0.59 98 1015.3
20260507014003 54 2 0.0 0.0 0.00 0.59 0.59 98 1014.7
20260507013500 54 85 0.0 0.0 0.00 0.59 0.59 98 1014.7
20260507012957 54 43 0.9 1.7 0.00 0.59 0.59 99 1014.8
20260507012454 54 50 0.9 0.9 0.00 0.59 0.59 99 1014.7
20260507011951 54 115 0.0 0.0 0.00 0.59 0.59 99 1014.8
20260507011448 54 117 0.0 0.0 0.00 0.59 0.59 99 1014.3
20260507010943 55 117 0.0 0.0 0.00 0.59 0.59 99 1014.7
20260507010438 54 117 0.0 0.0 0.00 0.59 0.59 99 1014.6
20260507005935 54 117 0.0 0.0 0.00 0.59 0.59 98 1014.8
20260507005433 55 117 0.0 0.0 0.00 0.59 0.59 98 1014.6
20260507004930 55 117 0.0 0.0 0.00 0.59 0.59 98 1014.7
20260507004426 55 117 0.0 0.0 0.00 0.59 0.59 98 1014.6
20260507003923 54 117 0.0 0.0 0.00 0.59 0.59 98 1014.5
20260507003418 55 117 0.0 0.0 0.00 0.59 0.59 98 1014.6
20260507002914 55 118 0.0 0.0 0.00 0.59 0.59 98 1014.2
20260507002410 55 112 0.0 0.0 0.00 0.59 0.59 98 1014.6
20260507001907 55 113 0.0 0.9 0.00 0.59 0.59 97 1014.7
20260507001404 55 115 0.0 0.0 0.00 0.59 0.59 97 1014.5
20260507000902 55 115 0.0 0.0 0.00 0.59 0.59 97 1014.4
20260507000357 55 116 0.0 0.0 0.00 0.59 0.59 97 1014.2
20260506235853 55 116 0.0 0.9 0.00 0.59 0.59 97 1013.8
20260506235350 55 116 0.0 0.0 0.00 0.59 0.59 97 1014.1
20260506234845 55 116 0.0 0.0 0.00 0.59 0.59 97 1014.3
20260506234344 55 116 0.0 0.0 0.00 0.59 0.59 97 1014.1
20260506233841 55 117 0.9 0.9 0.00 0.59 0.59 96 1014.2
20260506233337 55 151 0.0 0.0 0.00 0.59 0.59 95 1014.7
20260506232834 56 172 0.0 0.0 0.00 0.59 0.59 95 1014.8
20260506232330 55 201 0.0 0.9 0.00 0.59 0.59 94 1014.4
20260506231826 55 200 0.0 0.9 0.00 0.59 0.59 94 1014.6
20260506231324 56 139 0.9 1.7 0.00 0.59 0.59 93 1014.4
20260506230821 56 188 0.0 0.9 0.00 0.59 0.59 93 1014.7
20260506230318 56 123 0.0 0.9 0.00 0.59 0.59 93 1014.4
20260506225814 56 159 0.0 0.0 0.00 0.59 0.59 92 1014.8
20260506225312 56 160 0.0 0.9 0.00 0.59 0.59 92 1014.5
20260506224808 56 220 0.0 0.0 0.00 0.59 0.59 92 1014.5
20260506224306 56 206 0.0 0.0 0.00 0.59 0.59 92 1014.6
20260506223802 56 190 0.9 0.9 0.00 0.59 0.59 92 1014.5
20260506223257 56 177 0.9 1.7 0.00 0.59 0.59 92 1014.4
20260506222754 56 173 0.9 0.9 0.00 0.59 0.59 91 1014.6
20260506222250 56 239 0.0 0.9 0.00 0.59 0.59 91 1014.8
20260506221748 56 148 0.0 0.9 0.00 0.59 0.59 92 1014.2
20260506221246 56 135 0.0 0.9 0.00 0.59 0.59 93 1014.1
20260506220743 55 192 0.9 1.7 0.00 0.59 0.59 93 1014.1
20260506220238 56 136 1.7 1.7 0.00 0.59 0.59 94 1014.1
20260506215735 55 125 2.6 2.6 0.00 0.59 0.59 93 1014.4
20260506215230 55 163 2.6 3.5 0.00 0.59 0.59 94 1014.1
20260506214727 56 165 0.9 2.6 0.00 0.59 0.59 93 1014.1
20260506214225 56 138 1.7 2.6 0.00 0.59 0.59 95 1014.0
20260506213723 56 139 1.7 2.6 0.00 0.59 0.59 94 1013.9
20260506213220 55 142 0.9 1.7 0.00 0.59 0.59 93 1014.1
20260506212717 56 155 1.7 1.7 0.00 0.59 0.59 94 1013.8
20260506212212 56 224 0.9 0.9 0.00 0.59 0.59 92 1013.9
20260506211707 56 234 0.0 0.9 0.00 0.59 0.59 91 1014.0
20260506211204 56 206 0.9 1.7 0.00 0.59 0.59 91 1014.1
20260506210701 56 155 0.0 0.0 0.00 0.59 0.59 91 1013.9
20260506210158 56 290 0.9 1.7 0.00 0.59 0.59 91 1013.9
20260506205655 56 271 0.0 0.0 0.00 0.59 0.59 90 1013.8
20260506205150 56 268 0.0 0.0 0.00 0.59 0.59 91 1013.9
20260506204648 56 270 0.0 1.7 0.00 0.59 0.59 91 1013.9
20260506204144 56 238 0.0 0.0 0.00 0.59 0.59 90 1013.7
20260506203643 56 227 0.9 1.7 0.00 0.59 0.59 90 1013.6
20260506203139 56 281 1.7 2.6 0.00 0.59 0.59 89 1013.6
20260506202637 56 277 1.7 2.6 0.00 0.59 0.59 88 1013.5
20260506202133 56 245 0.9 1.7 0.00 0.59 0.59 89 1013.3
20260506201630 56 244 2.6 2.6 0.00 0.59 0.59 89 1013.2
20260506201127 56 298 1.7 2.6 0.00 0.59 0.59 89 1013.4
20260506200623 56 267 1.7 2.6 0.00 0.59 0.59 89 1013.3
20260506200120 56 283 1.7 1.7 0.00 0.59 0.59 90 1013.3
20260506195617 0 0.0 0.0 0.00 0.00 0.00 1013.2
20260506195113 0 0.0 0.0 0.00 0.00 0.00 1013.3
20260506194611 0 0.0 0.0 0.00 0.59 0.59 1013.3
20260506194107 0 0.0 0.0 0.00 0.59 0.59 1013.1
20260506193605 0 0.0 0.0 0.00 0.59 0.59 1013.0
20260506193101 0 0.0 0.0 0.00 0.59 0.59 1013.0
20260506192558 0 0.0 0.0 0.00 0.59 0.59 1012.8
20260506192054 0 0.0 0.0 0.00 0.59 0.59 1012.9
20260506191551 0 0.0 0.0 0.00 0.59 0.59 1013.0
20260506191047 0 0.0 0.0 0.00 0.59 0.59 1013.0
20260506190544 0 0.0 0.0 0.00 0.59 0.59 1012.9
20260506190041 0 0.0 0.0 0.00 0.59 0.59 1012.9
20260506185539 56 284 3.5 3.5 0.00 0.59 0.59 93 1012.9
20260506185035 56 284 3.5 7.0 0.00 0.59 0.59 93 1013.0
20260506184532 0 0.0 0.0 0.00 0.59 0.59 1012.8
20260506184030 0 0.0 0.0 0.00 0.59 0.59 1012.9
20260506183525 59 142 0.9 0.9 0.00 0.59 0.59 90 1012.8
20260506183022 59 142 0.9 0.9 0.00 0.59 0.59 90 1012.8
20260506182520 0 0.0 0.0 0.00 0.59 0.59 1012.7
20260506182017 0 0.0 0.0 0.00 0.59 0.59 1012.5
20260506181514 0 0.0 0.0 0.00 0.59 0.59 1012.5
20260506181011 0 0.0 0.0 0.00 0.59 0.59 1012.4
20260506180508 58 218 1.7 1.7 0.00 0.59 0.59 93 1012.6
20260506180005 58 218 1.7 1.7 0.00 0.59 0.59 93 1012.6
20260506175501 58 220 0.0 0.0 0.00 0.59 0.59 94 1012.6
20260506174957 58 220 0.0 0.0 0.00 0.59 0.59 94 1012.5
20260506174456 58 260 1.7 1.7 0.00 0.59 0.59 94 1012.6
20260506173952 58 77 1.7 1.7 0.00 0.59 0.59 93 1012.7
20260506173450 58 256 0.9 0.9 0.00 0.59 0.59 94 1012.5
20260506172946 58 256 0.9 0.9 0.00 0.59 0.59 95 1012.5
20260506172444 58 228 0.0 0.9 0.00 0.59 0.59 95 1012.4
20260506171940 57 278 1.7 2.6 0.00 0.59 0.59 96 1012.6
20260506171437 58 221 2.6 3.5 0.00 0.59 0.59 96 1012.5
20260506170935 58 289 1.7 2.6 0.00 0.59 0.59 96 1012.5
20260506170431 59 261 2.6 2.6 0.00 0.59 0.59 95 1012.3
20260506165930 60 261 1.7 2.6 0.00 0.59 0.59 96 1012.5
20260506165428 60 284 2.6 3.5 0.00 0.59 0.59 96 1012.1
20260506164924 61 261 0.9 3.5 0.00 0.59 0.59 95 1012.0
20260506164421 61 268 1.7 2.6 0.00 0.59 0.59 95 1012.2
20260506163920 62 251 2.6 3.5 0.00 0.59 0.59 95 1012.2
20260506163420 62 204 0.9 1.7 0.00 0.59 0.59 95 1012.0
20260506162915 62 13 2.6 2.6 0.00 0.59 0.59 96 1011.9
20260506162413 62 89 0.9 0.9 0.00 0.59 0.59 96 1011.8
20260506161910 62 35 1.7 3.5 0.00 0.59 0.59 96 1011.9
20260506161408 62 193 0.9 1.7 0.00 0.59 0.59 95 1011.9
20260506160905 62 211 0.9 2.6 0.00 0.59 0.59 96 1011.6
20260506160402 62 28 0.9 0.9 0.00 0.59 0.59 97 1011.6
20260506155900 62 69 1.7 1.7 0.00 0.59 0.59 96 1011.6
20260506155356 62 305 0.0 3.5 0.00 0.59 0.59 96 1011.7
20260506153513 62 357 4.3 6.1 0.00 0.59 0.59 96 1011.6
20260506153011 62 306 0.9 2.6 0.00 0.59 0.59 97 1011.1
20260506152508 62 335 0.9 0.9 0.00 0.59 0.59 97 1011.2
20260506152006 62 337 1.7 2.6 0.00 0.59 0.59 97 1011.4
20260506151503 61 52 0.0 5.2 0.00 0.59 0.59 98 1011.0
20260506151000 61 318 3.5 5.2 0.00 0.59 0.59 99 1011.0
20260506150456 61 54 0.9 2.6 0.00 0.59 0.59 99 1011.1
20260506145953 61 22 0.9 1.7 0.00 0.59 0.59 99 1011.1
20260506145450 60 56 1.7 1.7 0.07 0.59 0.59 99 1011.1
20260506144948 60 343 1.7 2.6 0.07 0.59 0.59 99 1010.9
20260506144444 60 46 0.0 0.0 0.00 0.58 0.58 99 1011.2
20260506143942 60 67 0.0 1.7 0.00 0.58 0.58 99 1011.1
20260506143439 60 110 0.9 2.6 0.00 0.58 0.58 99 1010.8
20260506142937 60 145 0.0 0.9 0.00 0.58 0.58 99 1011.0
20260506142435 60 39 0.0 0.9 0.00 0.58 0.58 99 1010.7
20260506141933 60 39 1.7 2.6 0.00 0.58 0.58 99 1010.5
20260506141430 59 342 0.9 1.7 0.00 0.58 0.58 99 1010.5
20260506140929 59 43 0.9 0.9 0.00 0.58 0.58 99 1010.6
20260506140425 59 51 0.9 0.9 0.00 0.58 0.58 99 1010.5
20260506135922 59 68 0.0 0.9 0.00 0.58 0.58 99 1010.3
20260506135419 59 80 1.7 1.7 0.00 0.58 0.58 99 1010.3
20260506134915 60 78 0.0 0.0 0.00 0.58 0.58 99 1010.2
20260506134411 60 84 0.0 0.0 0.00 0.58 0.58 99 1010.2
20260506133909 59 83 0.0 0.0 0.00 0.58 0.58 99 1010.0
20260506133405 59 66 0.0 0.0 0.00 0.58 0.58 99 1010.2
20260506132902 59 68 0.0 0.0 0.05 0.58 0.58 99 1010.2
20260506132359 59 68 0.0 0.0 0.05 0.58 0.58 99 1010.4
20260506131857 59 70 0.0 0.0 0.00 0.57 0.57 99 1010.2
20260506131353 59 74 0.0 0.0 0.00 0.57 0.57 99 1010.2
20260506130850 58 62 0.0 0.0 0.00 0.57 0.57 99 1010.1
20260506130346 59 60 0.0 0.0 0.00 0.57 0.57 99 1010.3
20260506125845 59 60 0.0 0.0 0.00 0.57 0.57 99 1010.2
20260506125343 58 60 0.0 0.0 0.00 0.57 0.57 99 1009.9
20260506124841 58 60 0.0 0.0 0.00 0.57 0.57 99 1010.0
20260506124338 58 60 0.0 0.0 0.00 0.57 0.57 99 1010.1
20260506123835 58 60 0.0 0.0 0.07 0.57 0.57 99 1010.0
20260506123333 58 61 0.0 0.0 0.07 0.57 0.57 99 1010.2
20260506122830 58 69 0.0 0.0 0.00 0.56 0.56 99 1010.0
20260506122327 58 69 0.9 0.9 0.00 0.56 0.56 99 1010.2
20260506121826 58 70 0.0 0.0 0.05 0.56 0.56 99 1009.9
20260506121322 58 69 0.0 0.0 0.05 0.56 0.56 99 1010.1
20260506120819 58 28 0.0 0.0 0.00 0.55 0.55 99 1010.0
20260506120317 58 309 0.0 0.9 0.00 0.55 0.55 99 1010.2
20260506115814 58 309 0.0 0.0 0.07 0.55 0.55 99 1010.2
20260506115313 58 309 0.0 0.9 0.07 0.55 0.55 99 1010.2
20260506114810 58 309 0.0 0.0 0.00 0.54 0.54 99 1010.0
20260506114308 57 309 0.0 0.0 0.00 0.54 0.54 99 1009.7
20260506113806 57 309 0.0 1.7 0.00 0.54 0.54 99 1009.9
20260506113303 57 48 0.0 0.0 0.00 0.54 0.54 99 1009.9
20260506112800 57 42 0.0 0.9 0.00 0.54 0.54 99 1009.7
20260506112257 57 324 0.0 0.0 0.00 0.54 0.54 99 1009.7
20260506111754 57 85 0.9 1.7 0.00 0.54 0.54 99 1009.4
20260506111252 57 84 0.9 1.7 0.05 0.54 0.54 99 1009.3
20260506110749 57 59 0.9 2.6 0.05 0.54 0.54 99 1009.3
20260506110247 57 66 0.0 0.9 0.07 0.53 0.53 99 1009.2
20260506105743 57 78 1.7 2.6 0.14 0.53 0.53 99 1009.1
20260506105240 57 65 0.0 0.0 0.17 0.51 0.51 99 1009.4
20260506104738 57 83 0.0 0.0 0.19 0.50 0.50 99 1009.2
20260506104235 57 99 0.0 0.0 0.12 0.48 0.48 99 1009.1
20260506103732 57 102 0.0 0.0 0.17 0.47 0.47 99 1009.2
20260506103229 57 102 0.0 0.0 0.19 0.46 0.46 99 1008.9
20260506102727 57 126 0.0 0.0 0.12 0.44 0.44 99 1009.2
20260506102225 57 125 0.0 0.0 0.00 0.42 0.42 99 1008.8
20260506101721 57 172 1.7 1.7 0.00 0.42 0.42 99 1009.0
20260506101218 57 141 0.0 0.0 0.07 0.42 0.42 99 1008.7
20260506100716 57 150 1.7 1.7 0.07 0.42 0.42 99 1009.1
20260506100214 57 127 0.0 0.9 0.12 0.41 0.41 99 1008.9
20260506095712 57 103 0.0 0.0 0.26 0.40 0.40 99 1009.2
20260506095209 57 160 1.7 2.6 0.42 0.39 0.39 99 1009.3
20260506094706 57 160 1.7 2.6 0.35 0.36 0.36 99 1009.5